Location: Espelette
(43.3402°N, 1.4474°W)
Time: 05:21:16
(UTC+00:00)

Cosmos 1726 Rocket - Pass Details

Date: 19 May 2025
Orbit: 554 x 664 km, 82.5° (Epoch: 13 June)

Event Time Altitude Azimuth Distance (km) Brightness Sun altitude
Rises 20:16:51 0° 184° (S) 2,968 6.7 -8.3°
Reaches altitude 10° 20:19:07 10° 184° (S) 2,051 5.9 -8.6°
Maximum altitude 20:23:40 82° 98° (E) 651 3.6 -9.3°
Drops below altitude 10° 20:28:09 10° 10° (N) 2,007 6.6 -9.9°
Sets 20:30:21 0° 10° (N) 2,900 7.5 -10.2°
